Time,TemperatureF,DewpointF,PressureIn,WindDirection,WindDirectionDegrees,WindSpeedMPH,WindSpeedGustMPH,Humidity,HourlyPrecipIn,Conditions,Clouds,dailyrainin,SoftwareType,DateUTC
2013-05-03 00:00:00,62.6,40.4,30.15,SE,135,6.0,8.5,44,0.00,,CLR,0.00,VWS V14.01,2013-05-03 04:00:00,
2013-05-03 00:01:00,62.6,41.0,30.15,ESE,112,5.6,8.5,45,0.00,,CLR,0.00,VWS V14.01,2013-05-03 04:01:00,
2013-05-03 00:03:00,62.6,40.4,30.15,SE,135,6.0,8.5,44,0.00,,CLR,0.00,VWS V14.01,2013-05-03 04:03:00,
2013-05-03 00:04:00,62.6,40.4,30.15,SE,135,6.3,6.5,44,0.00,,CLR,0.00,VWS V14.01,2013-05-03 04:04:00,
2013-05-03 00:07:00,62.6,40.4,30.15,ESE,112,5.4,6.5,44,0.00,,CLR,0.00,VWS V14.01,2013-05-03 04:07:00,
2013-05-03 00:12:00,62.4,40.8,30.15,SE,135,3.8,6.5,45,0.00,,CLR,0.00,VWS V14.01,2013-05-03 04:12:00,
2013-05-03 00:17:00,62.4,40.2,30.15,SSE,158,3.8,7.2,44,0.00,,CLR,0.00,VWS V14.01,2013-05-03 04:17:00,
2013-05-03 00:22:00,62.2,40.1,30.15,SE,135,5.6,7.2,44,0.00,,CLR,0.00,VWS V14.01,2013-05-03 04:22:00,
2013-05-03 00:27:00,62.2,40.7,30.15,SSE,158,3.6,8.1,45,0.00,,CLR,0.00,VWS V14.01,2013-05-03 04:27:00,
2013-05-03 00:32:00,61.9,40.3,30.15,SSE,158,5.4,8.1,45,0.00,,CLR,0.00,VWS V14.01,2013-05-03 04:32:00,
2013-05-03 00:37:00,61.7,40.7,30.15,SSE,158,4.3,8.1,46,0.00,,CLR,0.00,VWS V14.01,2013-05-03 04:37:00,
2013-05-03 00:42:00,61.2,40.2,30.15,SSE,158,4.0,8.1,46,0.00,,CLR,0.00,VWS V14.01,2013-05-03 04:42:00,
2013-05-03 00:47:00,61.0,39.5,30.15,SSE,158,3.6,8.1,45,0.00,,CLR,0.00,VWS V14.01,2013-05-03 04:47:00,
2013-05-03 00:52:00,60.6,39.8,30.15,SE,135,3.6,8.1,46,0.00,,CLR,0.00,VWS V14.01,2013-05-03 04:52:00,
2013-05-03 00:57:00,60.6,39.8,30.15,SSE,158,3.8,8.1,46,0.00,,CLR,0.00,VWS V14.01,2013-05-03 04:57:00,
2013-05-03 01:00:00,60.3,39.4,30.15,SE,135,3.4,8.1,46,0.00,,CLR,0.00,VWS V14.01,2013-05-03 05:00:00,
2013-05-03 01:02:00,60.3,39.4,30.15,SSE,158,2.9,8.1,46,0.00,,CLR,0.00,VWS V14.01,2013-05-03 05:02:00,
2013-05-03 01:07:00,59.9,38.5,30.15,SE,135,3.6,4.9,45,0.00,,CLR,0.00,VWS V14.01,2013-05-03 05:07:00,
2013-05-03 01:12:00,60.1,38.7,30.15,SE,135,3.8,4.9,45,0.00,,CLR,0.00,VWS V14.01,2013-05-03 05:12:00,
2013-05-03 01:17:00,60.1,38.7,30.15,SE,135,3.6,4.9,45,0.00,,CLR,0.00,VWS V14.01,2013-05-03 05:17:00,
2013-05-03 01:22:00,59.9,38.5,30.15,SE,135,3.8,4.9,45,0.00,,CLR,0.00,VWS V14.01,2013-05-03 05:22:00,
2013-05-03 01:27:00,59.9,38.0,30.15,SE,135,3.8,4.9,44,0.00,,CLR,0.00,VWS V14.01,2013-05-03 05:27:00,
2013-05-03 01:32:00,60.3,37.7,30.15,SSE,158,3.8,4.9,43,0.00,,CLR,0.00,VWS V14.01,2013-05-03 05:32:00,
2013-05-03 01:37:00,60.4,37.9,30.15,SE,135,4.9,5.8,43,0.00,,CLR,0.00,VWS V14.01,2013-05-03 05:37:00,
2013-05-03 01:42:00,60.6,37.4,30.15,ESE,112,5.6,6.3,42,0.00,,CLR,0.00,VWS V14.01,2013-05-03 05:42:00,
2013-05-03 01:47:00,60.8,37.0,30.15,ESE,112,4.7,7.2,41,0.00,,CLR,0.00,VWS V14.01,2013-05-03 05:47:00,
2013-05-03 01:52:00,61.0,36.5,30.15,SE,135,6.5,7.6,40,0.00,,CLR,0.00,VWS V14.01,2013-05-03 05:52:00,
2013-05-03 01:57:00,61.0,36.5,30.15,SE,135,5.8,8.7,40,0.00,,CLR,0.00,VWS V14.01,2013-05-03 05:57:00,
2013-05-03 02:00:00,61.0,35.9,30.15,ESE,112,5.6,8.7,39,0.00,,CLR,0.00,VWS V14.01,2013-05-03 06:00:00,
2013-05-03 02:02:00,61.0,35.9,30.15,SE,135,4.0,8.7,39,0.00,,CLR,0.00,VWS V14.01,2013-05-03 06:02:00,
2013-05-03 02:07:00,61.0,35.2,30.15,ESE,112,6.0,6.3,38,0.00,,CLR,0.00,VWS V14.01,2013-05-03 06:07:00,
2013-05-03 02:12:00,61.0,35.2,30.15,SE,135,6.0,7.2,38,0.00,,CLR,0.00,VWS V14.01,2013-05-03 06:12:00,
2013-05-03 02:17:00,61.0,35.2,30.15,SE,135,6.5,7.2,38,0.00,,CLR,0.00,VWS V14.01,2013-05-03 06:17:00,
2013-05-03 02:22:00,60.8,34.4,30.15,SE,135,6.5,7.2,37,0.00,,CLR,0.00,VWS V14.01,2013-05-03 06:22:00,
2013-05-03 02:27:00,60.8,34.4,30.15,ESE,112,4.3,7.2,37,0.00,,CLR,0.00,VWS V14.01,2013-05-03 06:27:00,
2013-05-03 02:32:00,60.6,34.9,30.12,ESE,112,4.7,7.2,38,0.00,,CLR,0.00,VWS V14.01,2013-05-03 06:32:00,
2013-05-03 02:37:00,60.4,34.7,30.12,SE,135,5.6,7.2,38,0.00,,CLR,0.00,VWS V14.01,2013-05-03 06:37:00,
2013-05-03 02:42:00,60.3,34.6,30.12,ESE,112,4.0,7.2,38,0.00,,CLR,0.00,VWS V14.01,2013-05-03 06:42:00,
2013-05-03 02:48:00,60.3,34.6,30.15,SE,135,3.8,8.5,38,0.00,,CLR,0.00,VWS V14.01,2013-05-03 06:48:00,
2013-05-03 02:53:00,60.1,34.4,30.15,SE,135,5.8,8.5,38,0.00,,CLR,0.00,VWS V14.01,2013-05-03 06:53:00,
2013-05-03 02:58:00,60.1,34.4,30.15,SE,135,5.4,8.5,38,0.00,,CLR,0.00,VWS V14.01,2013-05-03 06:58:00,
2013-05-03 03:00:00,60.1,34.4,30.15,SE,135,5.8,8.5,38,0.00,,CLR,0.00,VWS V14.01,2013-05-03 07:00:00,
2013-05-03 03:03:00,60.1,34.4,30.15,SE,135,4.3,8.5,38,0.00,,CLR,0.00,VWS V14.01,2013-05-03 07:03:00,
2013-05-03 03:08:00,60.1,33.8,30.15,SE,135,6.5,6.7,37,0.00,,CLR,0.00,VWS V14.01,2013-05-03 07:08:00,
2013-05-03 03:13:00,60.1,34.4,30.15,ESE,112,5.6,7.6,38,0.00,,CLR,0.00,VWS V14.01,2013-05-03 07:13:00,
2013-05-03 03:18:00,59.9,34.2,30.12,SSE,158,6.3,7.6,38,0.00,,CLR,0.00,VWS V14.01,2013-05-03 07:18:00,
2013-05-03 03:23:00,59.9,34.2,30.12,ESE,112,4.0,7.6,38,0.00,,CLR,0.00,VWS V14.01,2013-05-03 07:23:00,
2013-05-03 03:28:00,59.7,34.1,30.12,SE,135,4.9,7.6,38,0.00,,CLR,0.00,VWS V14.01,2013-05-03 07:28:00,
2013-05-03 03:33:00,59.7,34.1,30.12,SE,135,6.3,7.6,38,0.00,,CLR,0.00,VWS V14.01,2013-05-03 07:33:00,
2013-05-03 03:38:00,59.7,34.1,30.12,SE,135,4.9,7.6,38,0.00,,CLR,0.00,VWS V14.01,2013-05-03 07:38:00,
2013-05-03 03:43:00,59.7,33.4,30.12,SE,135,6.9,7.6,37,0.00,,CLR,0.00,VWS V14.01,2013-05-03 07:43:00,
2013-05-03 03:48:00,59.7,34.1,30.15,ESE,112,4.9,7.6,38,0.00,,CLR,0.00,VWS V14.01,2013-05-03 07:48:00,
2013-05-03 03:53:00,59.7,33.4,30.15,SE,135,8.1,8.1,37,0.00,,CLR,0.00,VWS V14.01,2013-05-03 07:53:00,
2013-05-03 03:58:00,59.7,33.4,30.15,SE,135,6.3,8.5,37,0.00,,CLR,0.00,VWS V14.01,2013-05-03 07:58:00,
2013-05-03 04:00:00,59.5,33.3,30.15,SE,135,4.3,8.5,37,0.00,,CLR,0.00,VWS V14.01,2013-05-03 08:00:00,
2013-05-03 04:03:00,59.5,33.3,30.15,SE,135,4.3,4.3,37,0.00,,CLR,0.00,VWS V14.01,2013-05-03 08:03:00,
2013-05-03 04:08:00,59.4,33.8,30.15,SE,135,5.6,7.2,38,0.00,,CLR,0.00,VWS V14.01,2013-05-03 08:08:00,
2013-05-03 04:13:00,59.4,33.8,30.15,ESE,112,4.9,7.4,38,0.00,,CLR,0.00,VWS V14.01,2013-05-03 08:13:00,
2013-05-03 04:18:00,59.4,33.8,30.15,SSE,158,7.2,7.4,38,0.00,,CLR,0.00,VWS V14.01,2013-05-03 08:18:00,
2013-05-03 04:23:00,59.2,33.6,30.15,SE,135,7.8,7.8,38,0.00,,CLR,0.00,VWS V14.01,2013-05-03 08:23:00,
2013-05-03 04:28:00,59.2,33.6,30.15,SSE,158,5.8,7.8,38,0.00,,CLR,0.00,VWS V14.01,2013-05-03 08:28:00,
2013-05-03 04:33:00,58.8,33.9,30.15,SE,135,4.3,7.8,39,0.00,,CLR,0.00,VWS V14.01,2013-05-03 08:33:00,
2013-05-03 04:38:00,58.6,34.4,30.15,ESE,112,5.6,7.8,40,0.00,,CLR,0.00,VWS V14.01,2013-05-03 08:38:00,
2013-05-03 04:43:00,58.6,34.4,30.15,ESE,112,4.0,7.8,40,0.00,,CLR,0.00,VWS V14.01,2013-05-03 08:43:00,
2013-05-03 04:48:00,58.5,34.2,30.15,SE,135,5.4,7.8,40,0.00,,CLR,0.00,VWS V14.01,2013-05-03 08:48:00,
2013-05-03 04:53:00,58.5,34.2,30.15,ESE,112,4.9,7.8,40,0.00,,CLR,0.00,VWS V14.01,2013-05-03 08:53:00,
2013-05-03 04:58:00,58.3,34.7,30.15,ESE,112,4.9,7.8,41,0.00,,CLR,0.00,VWS V14.01,2013-05-03 08:58:00,
2013-05-03 05:00:00,58.3,34.7,30.15,ESE,112,4.9,7.8,41,0.00,,CLR,0.00,VWS V14.01,2013-05-03 09:00:00,
2013-05-03 05:03:00,58.3,34.7,30.15,ESE,112,4.3,5.8,41,0.00,,CLR,0.00,VWS V14.01,2013-05-03 09:03:00,
2013-05-03 05:08:00,58.1,34.5,30.15,ESE,112,4.9,5.8,41,0.00,,CLR,0.00,VWS V14.01,2013-05-03 09:08:00,
2013-05-03 05:13:00,57.9,35.0,30.15,SE,135,6.3,6.3,42,0.00,,CLR,0.00,VWS V14.01,2013-05-03 09:13:00,
2013-05-03 05:18:00,57.9,35.6,30.15,SE,135,6.0,6.3,43,0.00,,CLR,0.00,VWS V14.01,2013-05-03 09:18:00,
2013-05-03 05:23:00,57.9,35.6,30.15,ESE,112,5.8,6.3,43,0.00,,CLR,0.00,VWS V14.01,2013-05-03 09:23:00,
2013-05-03 05:28:00,57.7,35.4,30.15,SE,135,5.8,6.3,43,0.00,,CLR,0.00,VWS V14.01,2013-05-03 09:28:00,
2013-05-03 05:33:00,57.7,35.4,30.15,SE,135,4.9,6.5,43,0.00,,CLR,0.00,VWS V14.01,2013-05-03 09:33:00,
2013-05-03 05:38:00,57.7,35.4,30.15,ESE,112,5.4,6.5,43,0.00,,CLR,0.00,VWS V14.01,2013-05-03 09:38:00,
2013-05-03 05:43:00,57.6,35.2,30.15,ESE,112,4.0,7.8,43,0.00,,CLR,0.00,VWS V14.01,2013-05-03 09:43:00,
2013-05-03 05:48:00,57.9,35.6,30.15,SE,135,6.0,7.8,43,0.00,,CLR,0.00,VWS V14.01,2013-05-03 09:48:00,
2013-05-03 05:53:00,57.7,36.0,30.15,SE,135,5.4,7.8,44,0.00,,CLR,0.00,VWS V14.01,2013-05-03 09:53:00,
2013-05-03 05:58:00,57.9,35.6,30.15,SE,135,6.3,7.8,43,0.00,,CLR,0.00,VWS V14.01,2013-05-03 09:58:00,
2013-05-03 06:00:00,57.7,36.0,30.15,SE,135,6.3,7.8,44,0.00,,CLR,0.00,VWS V14.01,2013-05-03 10:00:00,
2013-05-03 06:03:00,57.7,35.4,30.15,ESE,112,5.6,6.5,43,0.00,,CLR,0.00,VWS V14.01,2013-05-03 10:03:00,
2013-05-03 06:08:00,57.7,36.0,30.15,SE,135,5.8,7.4,44,0.00,,CLR,0.00,VWS V14.01,2013-05-03 10:08:00,
2013-05-03 06:13:00,57.9,36.2,30.15,SE,135,6.9,8.1,44,0.00,,CLR,0.00,VWS V14.01,2013-05-03 10:13:00,
2013-05-03 06:18:00,58.1,36.3,30.15,SE,135,5.8,8.5,44,0.00,,CLR,0.00,VWS V14.01,2013-05-03 10:18:00,
2013-05-03 06:23:00,57.9,36.2,30.15,SE,135,5.6,8.5,44,0.00,,CLR,0.00,VWS V14.01,2013-05-03 10:23:00,
2013-05-03 06:29:00,57.9,36.2,30.15,SE,135,7.6,8.5,44,0.00,,CLR,0.00,VWS V14.01,2013-05-03 10:29:00,
2013-05-03 06:34:00,57.9,36.7,30.15,SE,135,5.6,8.5,45,0.00,,CLR,0.00,VWS V14.01,2013-05-03 10:34:00,
2013-05-03 06:39:00,57.7,36.0,30.15,SE,135,7.6,8.5,44,0.00,,CLR,0.00,VWS V14.01,2013-05-03 10:39:00,
2013-05-03 06:44:00,57.9,36.2,30.15,SE,135,7.2,8.5,44,0.00,,CLR,0.00,VWS V14.01,2013-05-03 10:44:00,
2013-05-03 06:49:00,57.9,36.7,30.15,ESE,112,6.9,8.5,45,0.00,,CLR,0.00,VWS V14.01,2013-05-03 10:49:00,
2013-05-03 06:54:00,58.1,36.9,30.15,SE,135,4.9,8.5,45,0.00,,CLR,0.00,VWS V14.01,2013-05-03 10:54:00,
2013-05-03 06:59:00,58.3,37.0,30.15,ESE,112,4.9,8.5,45,0.00,,CLR,0.00,VWS V14.01,2013-05-03 10:59:00,
2013-05-03 07:00:00,58.8,37.0,30.15,ESE,112,7.8,8.5,44,0.00,,CLR,0.00,VWS V14.01,2013-05-03 11:00:00,
2013-05-03 07:04:00,59.0,37.1,30.15,ESE,112,7.8,7.8,44,0.00,,CLR,0.00,VWS V14.01,2013-05-03 11:04:00,
2013-05-03 07:09:00,59.9,36.8,30.15,SE,135,7.6,7.8,42,0.00,,CLR,0.00,VWS V14.01,2013-05-03 11:09:00,
2013-05-03 07:14:00,60.3,35.9,30.15,SSE,158,5.4,8.1,40,0.00,,CLR,0.00,VWS V14.01,2013-05-03 11:14:00,
2013-05-03 07:19:00,60.6,36.8,30.15,ESE,112,6.3,8.7,41,0.00,,CLR,0.00,VWS V14.01,2013-05-03 11:19:00,
2013-05-03 07:24:00,60.6,36.8,30.15,ESE,112,6.3,9.4,41,0.00,,CLR,0.00,VWS V14.01,2013-05-03 11:24:00,
2013-05-03 07:29:00,60.1,36.3,30.15,SE,135,5.4,9.4,41,0.00,,CLR,0.00,VWS V14.01,2013-05-03 11:29:00,
2013-05-03 07:34:00,59.7,36.6,30.15,SE,135,7.2,9.4,42,0.00,,CLR,0.00,VWS V14.01,2013-05-03 11:34:00,
2013-05-03 07:39:00,59.7,36.6,30.15,SE,135,7.8,10.3,42,0.00,,CLR,0.00,VWS V14.01,2013-05-03 11:39:00,
2013-05-03 07:44:00,59.7,36.0,30.15,ESE,112,6.0,10.3,41,0.00,,CLR,0.00,VWS V14.01,2013-05-03 11:44:00,
2013-05-03 07:49:00,59.9,36.8,30.15,SE,135,6.3,10.3,42,0.00,,CLR,0.00,VWS V14.01,2013-05-03 11:49:00,
2013-05-03 07:54:00,60.3,37.7,30.15,SSE,158,8.5,10.3,43,0.00,,CLR,0.00,VWS V14.01,2013-05-03 11:54:00,
2013-05-03 07:59:00,60.4,37.9,30.15,SE,135,9.8,10.3,43,0.00,,CLR,0.00,VWS V14.01,2013-05-03 11:59:00,
2013-05-03 08:00:00,60.6,38.6,30.15,ESE,112,8.5,10.5,44,0.00,,CLR,0.00,VWS V14.01,2013-05-03 12:00:00,
2013-05-03 08:04:00,60.6,38.0,30.15,SE,135,6.5,8.5,43,0.00,,CLR,0.00,VWS V14.01,2013-05-03 12:04:00,
2013-05-03 08:09:00,61.2,37.9,30.15,SE,135,6.3,11.0,42,0.00,,CLR,0.00,VWS V14.01,2013-05-03 12:09:00,
2013-05-03 08:14:00,61.7,39.0,30.15,SE,135,8.7,11.0,43,0.00,,CLR,0.00,VWS V14.01,2013-05-03 12:14:00,
2013-05-03 08:19:00,62.2,40.1,30.15,South,180,8.5,11.0,44,0.00,,CLR,0.00,VWS V14.01,2013-05-03 12:19:00,
2013-05-03 08:24:00,62.6,38.0,30.15,SSE,158,6.3,11.0,40,0.00,,CLR,0.00,VWS V14.01,2013-05-03 12:24:00,
2013-05-03 08:29:00,63.3,38.6,30.15,SSE,158,7.8,11.0,40,0.00,,CLR,0.00,VWS V14.01,2013-05-03 12:29:00,
2013-05-03 08:34:00,63.9,38.5,30.18,SSE,158,7.2,11.0,39,0.00,,CLR,0.00,VWS V14.01,2013-05-03 12:34:00,
2013-05-03 08:39:00,64.0,39.2,30.18,SSE,158,5.6,11.0,40,0.00,,CLR,0.00,VWS V14.01,2013-05-03 12:39:00,
2013-05-03 08:44:00,64.4,38.9,30.18,South,180,6.3,11.0,39,0.00,,CLR,0.00,VWS V14.01,2013-05-03 12:44:00,
2013-05-03 08:49:00,65.1,39.6,30.15,SSE,158,6.0,11.0,39,0.00,,CLR,0.00,VWS V14.01,2013-05-03 12:49:00,
2013-05-03 08:54:00,66.0,40.4,30.15,SSE,158,5.6,11.0,39,0.00,,CLR,0.00,VWS V14.01,2013-05-03 12:54:00,
2013-05-03 08:59:00,66.9,39.8,30.15,SSE,158,4.5,11.0,37,0.00,,CLR,0.00,VWS V14.01,2013-05-03 12:59:00,
2013-05-03 09:00:00,66.9,39.8,30.15,SE,135,7.2,11.0,37,0.00,,CLR,0.00,VWS V14.01,2013-05-03 13:00:00,
2013-05-03 09:04:00,67.5,39.6,30.15,SSE,158,8.5,8.5,36,0.00,,CLR,0.00,VWS V14.01,2013-05-03 13:04:00,
2013-05-03 09:09:00,68.0,41.5,30.15,South,180,3.6,8.7,38,0.00,,CLR,0.00,VWS V14.01,2013-05-03 13:09:00,
2013-05-03 09:14:00,69.6,40.8,30.15,South,180,7.6,8.7,35,0.00,,CLR,0.00,VWS V14.01,2013-05-03 13:14:00,
2013-05-03 09:19:00,70.7,41.7,30.15,SSE,158,6.0,8.7,35,0.00,,CLR,0.00,VWS V14.01,2013-05-03 13:19:00,
2013-05-03 09:24:00,72.5,43.3,30.15,South,180,13.0,13.0,35,0.00,,CLR,0.00,VWS V14.01,2013-05-03 13:24:00,
2013-05-03 09:29:00,72.7,42.7,30.15,SSE,158,8.1,13.0,34,0.00,,CLR,0.00,VWS V14.01,2013-05-03 13:29:00,
2013-05-03 09:34:00,73.6,42.7,30.15,South,180,8.5,13.0,33,0.00,,CLR,0.00,VWS V14.01,2013-05-03 13:34:00,
2013-05-03 09:39:00,73.9,43.0,30.15,South,180,7.6,13.0,33,0.00,,CLR,0.00,VWS V14.01,2013-05-03 13:39:00,
2013-05-03 09:44:00,74.8,43.8,30.15,SSE,158,7.6,13.0,33,0.00,,CLR,0.00,VWS V14.01,2013-05-03 13:44:00,
2013-05-03 09:49:00,74.5,43.5,30.12,South,180,8.7,13.0,33,0.00,,CLR,0.00,VWS V14.01,2013-05-03 13:49:00,
2013-05-03 09:54:00,74.7,43.7,30.12,SSE,158,6.5,13.0,33,0.00,,CLR,0.00,VWS V14.01,2013-05-03 13:54:00,
2013-05-03 09:59:00,75.4,43.5,30.12,South,180,12.8,13.0,32,0.00,,CLR,0.00,VWS V14.01,2013-05-03 13:59:00,
2013-05-03 10:00:00,75.9,44.0,30.15,South,180,7.2,13.0,32,0.00,,CLR,0.00,VWS V14.01,2013-05-03 14:00:00,
2013-05-03 10:04:00,75.7,44.6,30.15,SSE,158,6.0,10.7,33,0.00,,CLR,0.00,VWS V14.01,2013-05-03 14:04:00,
2013-05-03 10:09:00,76.5,46.0,30.15,South,180,9.4,12.8,34,0.00,,CLR,0.00,VWS V14.01,2013-05-03 14:09:00,
2013-05-03 10:14:00,76.5,44.4,30.15,South,180,11.0,12.8,32,0.00,,CLR,0.00,VWS V14.01,2013-05-03 14:14:00,
2013-05-03 10:19:00,76.3,44.3,30.15,South,180,10.7,12.8,32,0.00,,CLR,0.00,VWS V14.01,2013-05-03 14:19:00,
2013-05-03 10:24:00,75.7,43.8,30.15,South,180,8.7,13.4,32,0.00,,CLR,0.00,VWS V14.01,2013-05-03 14:24:00,
2013-05-03 10:29:00,75.9,44.8,30.15,South,180,8.5,13.4,33,0.00,,CLR,0.00,VWS V14.01,2013-05-03 14:29:00,
2013-05-03 10:35:00,77.0,45.7,30.12,South,180,10.1,13.4,33,0.00,,CLR,0.00,VWS V14.01,2013-05-03 14:35:00,
2013-05-03 10:40:00,77.2,45.1,30.12,SSE,158,7.4,13.4,32,0.00,,CLR,0.00,VWS V14.01,2013-05-03 14:40:00,
2013-05-03 10:45:00,77.5,46.2,30.12,SSE,158,8.5,13.4,33,0.00,,CLR,0.00,VWS V14.01,2013-05-03 14:45:00,
2013-05-03 10:50:00,77.7,45.5,30.12,South,180,10.1,15.4,32,0.00,,CLR,0.00,VWS V14.01,2013-05-03 14:50:00,
2013-05-03 10:55:00,77.5,44.5,30.12,SSE,158,10.7,15.9,31,0.00,,CLR,0.00,VWS V14.01,2013-05-03 14:55:00,
2013-05-03 11:00:00,77.4,44.4,30.12,South,180,17.2,17.2,31,0.00,,CLR,0.00,VWS V14.01,2013-05-03 15:00:00,
2013-05-03 11:05:00,77.9,45.7,30.12,SSW,202,8.5,13.0,32,0.00,,CLR,0.00,VWS V14.01,2013-05-03 15:05:00,
2013-05-03 11:10:00,76.3,44.3,30.12,SSE,158,9.2,17.7,32,0.00,,CLR,0.00,VWS V14.01,2013-05-03 15:10:00,
2013-05-03 11:15:00,76.6,44.6,30.12,SSE,158,9.8,17.7,32,0.00,,CLR,0.00,VWS V14.01,2013-05-03 15:15:00,
2013-05-03 11:20:00,78.3,45.2,30.12,South,180,11.0,17.7,31,0.00,,CLR,0.00,VWS V14.01,2013-05-03 15:20:00,
2013-05-03 11:25:00,77.4,45.2,30.12,SSE,158,10.5,17.7,32,0.00,,CLR,0.00,VWS V14.01,2013-05-03 15:25:00,
2013-05-03 11:32:00,78.1,45.0,30.12,SSE,158,10.1,10.5,31,0.00,,CLR,0.00,VWS V14.01,2013-05-03 15:32:00,
2013-05-03 11:37:00,77.7,45.5,30.12,SSE,158,5.8,13.0,32,0.00,,CLR,0.00,VWS V14.01,2013-05-03 15:37:00,
2013-05-03 11:42:00,78.3,45.2,30.12,SE,135,10.3,13.0,31,0.00,,CLR,0.00,VWS V14.01,2013-05-03 15:42:00,
2013-05-03 11:47:00,77.9,44.9,30.12,SE,135,10.5,13.2,31,0.00,,CLR,0.00,VWS V14.01,2013-05-03 15:47:00,
2013-05-03 11:52:00,77.7,44.7,30.09,SSE,158,10.3,13.9,31,0.00,,CLR,0.00,VWS V14.01,2013-05-03 15:52:00,
2013-05-03 11:57:00,77.9,44.9,30.09,SSE,158,10.5,13.9,31,0.00,,CLR,0.00,VWS V14.01,2013-05-03 15:57:00,
2013-05-03 12:00:00,78.6,44.6,30.09,South,180,12.8,13.9,30,0.00,,CLR,0.00,VWS V14.01,2013-05-03 16:00:00,
2013-05-03 12:02:00,78.6,44.6,30.09,SSE,158,10.7,13.9,30,0.00,,CLR,0.00,VWS V14.01,2013-05-03 16:02:00,
2013-05-03 12:07:00,76.5,43.6,30.09,South,180,10.3,12.8,31,0.00,,CLR,0.00,VWS V14.01,2013-05-03 16:07:00,
2013-05-03 12:12:00,79.2,45.1,30.09,SE,135,7.4,12.8,30,0.00,,CLR,0.00,VWS V14.01,2013-05-03 16:12:00,
2013-05-03 12:17:00,79.7,45.6,30.09,SE,135,10.3,12.8,30,0.00,,CLR,0.00,VWS V14.01,2013-05-03 16:17:00,
2013-05-03 12:22:00,80.2,44.2,30.09,SSE,158,5.8,12.8,28,0.00,,CLR,0.00,VWS V14.01,2013-05-03 16:22:00,
2013-05-03 12:27:00,80.6,46.3,30.09,SE,135,4.7,12.8,30,0.00,,CLR,0.00,VWS V14.01,2013-05-03 16:27:00,
2013-05-03 12:32:00,81.5,47.1,30.09,South,180,5.8,12.8,30,0.00,,CLR,0.00,VWS V14.01,2013-05-03 16:32:00,
2013-05-03 12:37:00,80.6,44.5,30.09,SE,135,9.0,14.8,28,0.00,,CLR,0.00,VWS V14.01,2013-05-03 16:37:00,
2013-05-03 12:42:00,80.2,46.0,30.09,SE,135,11.9,14.8,30,0.00,,CLR,0.00,VWS V14.01,2013-05-03 16:42:00,
2013-05-03 12:47:00,80.4,44.4,30.09,SE,135,6.3,14.8,28,0.00,,CLR,0.00,VWS V14.01,2013-05-03 16:47:00,
2013-05-03 12:52:00,80.1,45.0,30.09,South,180,13.0,19.9,29,0.00,,CLR,0.00,VWS V14.01,2013-05-03 16:52:00,
2013-05-03 12:57:00,80.2,43.3,30.09,SSE,158,6.3,19.9,27,0.00,,CLR,0.00,VWS V14.01,2013-05-03 16:57:00,
2013-05-03 13:00:00,81.7,45.4,30.09,East,90,5.6,19.9,28,0.00,,CLR,0.00,VWS V14.01,2013-05-03 17:00:00,
2013-05-03 13:02:00,81.5,44.3,30.09,SE,135,7.6,19.9,27,0.00,,CLR,0.00,VWS V14.01,2013-05-03 17:02:00,
2013-05-03 13:07:00,81.5,44.3,30.09,SE,135,10.3,13.0,27,0.00,,CLR,0.00,VWS V14.01,2013-05-03 17:07:00,
2013-05-03 13:12:00,80.2,46.0,30.09,SE,135,10.7,13.2,30,0.00,,CLR,0.00,VWS V14.01,2013-05-03 17:12:00,
2013-05-03 13:17:00,80.4,43.4,30.09,South,180,13.9,17.2,27,0.00,,CLR,0.00,VWS V14.01,2013-05-03 17:17:00,
2013-05-03 13:22:00,80.4,46.2,30.09,ESE,112,9.8,17.2,30,0.00,,CLR,0.00,VWS V14.01,2013-05-03 17:22:00,
2013-05-03 13:27:00,79.5,44.5,30.09,SE,135,14.8,17.2,29,0.00,,CLR,0.00,VWS V14.01,2013-05-03 17:27:00,
2013-05-03 13:32:00,79.2,43.3,30.09,South,180,12.5,17.2,28,0.00,,CLR,0.00,VWS V14.01,2013-05-03 17:32:00,
2013-05-03 13:38:00,79.2,45.1,30.09,SSE,158,8.5,17.2,30,0.00,,CLR,0.00,VWS V14.01,2013-05-03 17:38:00,
2013-05-03 13:43:00,79.2,43.3,30.09,ESE,112,14.8,18.1,28,0.00,,CLR,0.00,VWS V14.01,2013-05-03 17:43:00,
2013-05-03 13:48:00,79.0,43.1,30.09,SSE,158,12.5,18.1,28,0.00,,CLR,0.00,VWS V14.01,2013-05-03 17:48:00,
2013-05-03 13:53:00,79.0,43.1,30.09,SE,135,13.0,18.1,28,0.00,,CLR,0.00,VWS V14.01,2013-05-03 17:53:00,
2013-05-03 13:58:00,80.1,45.9,30.09,ESE,112,8.5,18.1,30,0.00,,CLR,0.00,VWS V14.01,2013-05-03 17:58:00,
2013-05-03 14:00:00,80.2,46.9,30.09,SSE,158,12.5,18.1,31,0.00,,CLR,0.00,VWS V14.01,2013-05-03 18:00:00,
2013-05-03 14:03:00,80.2,46.9,30.09,SSE,158,13.6,18.1,31,0.00,,CLR,0.00,VWS V14.01,2013-05-03 18:03:00,
2013-05-03 14:08:00,80.2,43.3,30.09,SE,135,12.8,16.1,27,0.00,,CLR,0.00,VWS V14.01,2013-05-03 18:08:00,
2013-05-03 14:13:00,80.4,46.2,30.09,SSE,158,10.7,16.1,30,0.00,,CLR,0.00,VWS V14.01,2013-05-03 18:13:00,
2013-05-03 14:18:00,80.4,46.2,30.09,ESE,112,8.1,17.2,30,0.00,,CLR,0.00,VWS V14.01,2013-05-03 18:18:00,
2013-05-03 14:23:00,80.1,45.0,30.09,ESE,112,12.5,19.0,29,0.00,,CLR,0.00,VWS V14.01,2013-05-03 18:23:00,
2013-05-03 14:28:00,79.7,45.6,30.09,SE,135,13.0,19.0,30,0.00,,CLR,0.00,VWS V14.01,2013-05-03 18:28:00,
2013-05-03 14:33:00,78.6,44.6,30.09,SE,135,12.8,19.0,30,0.00,,CLR,0.00,VWS V14.01,2013-05-03 18:33:00,
2013-05-03 14:38:00,78.4,45.3,30.09,SSE,158,13.6,19.5,31,0.00,,CLR,0.00,VWS V14.01,2013-05-03 18:38:00,
2013-05-03 14:43:00,79.2,45.1,30.09,SE,135,15.4,21.5,30,0.00,,CLR,0.00,VWS V14.01,2013-05-03 18:43:00,
2013-05-03 14:48:00,79.2,45.1,30.09,SSE,158,15.2,21.5,30,0.00,,CLR,0.00,VWS V14.01,2013-05-03 18:48:00,
2013-05-03 14:53:00,79.2,45.1,30.09,ESE,112,15.7,21.5,30,0.00,,CLR,0.00,VWS V14.01,2013-05-03 18:53:00,
2013-05-03 14:58:00,79.3,45.2,30.09,SSE,158,14.5,21.5,30,0.00,,CLR,0.00,VWS V14.01,2013-05-03 18:58:00,
2013-05-03 15:00:00,79.0,44.9,30.09,SE,135,11.2,21.5,30,0.00,,CLR,0.00,VWS V14.01,2013-05-03 19:00:00,
2013-05-03 15:03:00,79.2,46.0,30.09,SE,135,10.7,11.2,31,0.00,,CLR,0.00,VWS V14.01,2013-05-03 19:03:00,
2013-05-03 15:08:00,79.3,46.1,30.09,ESE,112,6.5,17.0,31,0.00,,CLR,0.00,VWS V14.01,2013-05-03 19:08:00,
2013-05-03 15:13:00,79.9,45.7,30.09,SE,135,6.3,17.2,30,0.00,,CLR,0.00,VWS V14.01,2013-05-03 19:13:00,
2013-05-03 15:18:00,80.1,45.9,30.06,SE,135,16.3,17.2,30,0.00,,CLR,0.00,VWS V14.01,2013-05-03 19:18:00,
2013-05-03 15:23:00,79.9,45.7,30.06,SSE,158,14.8,17.2,30,0.00,,CLR,0.00,VWS V14.01,2013-05-03 19:23:00,
2013-05-03 15:28:00,80.2,46.0,30.06,ESE,112,8.1,17.2,30,0.00,,CLR,0.00,VWS V14.01,2013-05-03 19:28:00,
2013-05-03 15:33:00,80.2,46.0,30.06,South,180,11.9,17.2,30,0.00,,CLR,0.00,VWS V14.01,2013-05-03 19:33:00,
2013-05-03 15:38:00,79.9,45.7,30.06,SE,135,12.8,17.2,30,0.00,,CLR,0.00,VWS V14.01,2013-05-03 19:38:00,
2013-05-03 15:43:00,79.7,46.4,30.06,SSE,158,17.5,20.4,31,0.00,,CLR,0.00,VWS V14.01,2013-05-03 19:43:00,
2013-05-03 15:48:00,80.2,46.0,30.06,ESE,112,10.7,20.4,30,0.00,,CLR,0.00,VWS V14.01,2013-05-03 19:48:00,
2013-05-03 15:53:00,80.2,46.0,30.06,SSE,158,10.5,20.4,30,0.00,,CLR,0.00,VWS V14.01,2013-05-03 19:53:00,
2013-05-03 15:58:00,79.7,45.6,30.06,SE,135,14.8,20.4,30,0.00,,CLR,0.00,VWS V14.01,2013-05-03 19:58:00,
2013-05-03 16:00:00,78.3,45.2,30.06,ESE,112,7.6,20.6,31,0.00,,CLR,0.00,VWS V14.01,2013-05-03 20:00:00,
2013-05-03 16:03:00,78.3,45.2,30.06,SE,135,9.8,9.8,31,0.00,,CLR,0.00,VWS V14.01,2013-05-03 20:03:00,
2013-05-03 16:08:00,78.4,46.2,30.06,SSE,158,12.3,13.2,32,0.00,,CLR,0.00,VWS V14.01,2013-05-03 20:08:00,
2013-05-03 16:13:00,77.7,43.8,30.06,SSE,158,14.8,20.8,30,0.00,,CLR,0.00,VWS V14.01,2013-05-03 20:13:00,
2013-05-03 16:18:00,77.0,44.1,30.06,ESE,112,8.1,20.8,31,0.00,,CLR,0.00,VWS V14.01,2013-05-03 20:18:00,
2013-05-03 16:23:00,79.5,47.1,30.06,SE,135,15.2,20.8,32,0.00,,CLR,0.00,VWS V14.01,2013-05-03 20:23:00,
2013-05-03 16:29:00,79.9,45.7,30.06,SE,135,13.2,20.8,30,0.00,,CLR,0.00,VWS V14.01,2013-05-03 20:29:00,
2013-05-03 16:34:00,79.5,45.4,30.03,SE,135,14.1,20.8,30,0.00,,CLR,0.00,VWS V14.01,2013-05-03 20:34:00,
2013-05-03 16:39:00,79.9,46.6,30.03,SE,135,10.1,21.9,31,0.00,,CLR,0.00,VWS V14.01,2013-05-03 20:39:00,
2013-05-03 16:44:00,79.3,45.2,30.03,SE,135,14.3,22.6,30,0.00,,CLR,0.00,VWS V14.01,2013-05-03 20:44:00,
2013-05-03 16:49:00,79.3,45.2,30.06,SE,135,11.0,22.6,30,0.00,,CLR,0.00,VWS V14.01,2013-05-03 20:49:00,
2013-05-03 16:54:00,79.5,45.4,30.06,East,90,8.7,22.6,30,0.00,,CLR,0.00,VWS V14.01,2013-05-03 20:54:00,
2013-05-03 16:59:00,79.7,45.6,30.06,SE,135,12.8,22.6,30,0.00,,CLR,0.00,VWS V14.01,2013-05-03 20:59:00,
2013-05-03 17:00:00,79.3,43.4,30.06,SE,135,13.2,22.6,28,0.00,,CLR,0.00,VWS V14.01,2013-05-03 21:00:00,
2013-05-03 17:04:00,79.3,43.4,30.06,ESE,112,13.9,13.9,28,0.00,,CLR,0.00,VWS V14.01,2013-05-03 21:04:00,
2013-05-03 17:09:00,79.2,42.3,30.06,SE,135,10.7,14.5,27,0.00,,CLR,0.00,VWS V14.01,2013-05-03 21:09:00,
2013-05-03 17:14:00,78.8,42.0,30.06,SE,135,12.5,18.8,27,0.00,,CLR,0.00,VWS V14.01,2013-05-03 21:14:00,
2013-05-03 17:19:00,78.4,42.7,30.06,SE,135,12.5,18.8,28,0.00,,CLR,0.00,VWS V14.01,2013-05-03 21:19:00,
2013-05-03 17:24:00,78.3,42.5,30.06,East,90,9.6,18.8,28,0.00,,CLR,0.00,VWS V14.01,2013-05-03 21:24:00,
2013-05-03 17:29:00,78.1,40.4,30.06,ESE,112,10.3,18.8,26,0.00,,CLR,0.00,VWS V14.01,2013-05-03 21:29:00,
2013-05-03 17:34:00,78.4,38.7,30.09,SSE,158,12.8,18.8,24,0.00,,CLR,0.00,VWS V14.01,2013-05-03 21:34:00,
2013-05-03 17:39:00,78.1,37.3,30.09,ESE,112,12.3,18.8,23,0.00,,CLR,0.00,VWS V14.01,2013-05-03 21:39:00,
2013-05-03 17:44:00,77.9,37.2,30.09,SE,135,10.5,18.8,23,0.00,,CLR,0.00,VWS V14.01,2013-05-03 21:44:00,
2013-05-03 17:49:00,77.9,36.0,30.09,SSE,158,15.9,18.8,22,0.00,,CLR,0.00,VWS V14.01,2013-05-03 21:49:00,
2013-05-03 17:54:00,77.9,36.0,30.09,SSE,158,10.7,18.8,22,0.00,,CLR,0.00,VWS V14.01,2013-05-03 21:54:00,
2013-05-03 17:59:00,77.2,35.4,30.09,SSE,158,12.1,18.8,22,0.00,,CLR,0.00,VWS V14.01,2013-05-03 21:59:00,
2013-05-03 18:00:00,76.8,35.1,30.09,SE,135,11.0,18.8,22,0.00,,CLR,0.00,VWS V14.01,2013-05-03 22:00:00,
2013-05-03 18:04:00,76.6,35.0,30.09,ESE,112,10.1,17.2,22,0.00,,CLR,0.00,VWS V14.01,2013-05-03 22:04:00,
2013-05-03 18:09:00,76.3,33.5,30.09,SE,135,13.0,17.2,21,0.00,,CLR,0.00,VWS V14.01,2013-05-03 22:09:00,
2013-05-03 18:14:00,76.5,33.7,30.09,SE,135,9.0,17.2,21,0.00,,CLR,0.00,VWS V14.01,2013-05-03 22:14:00,
2013-05-03 18:19:00,76.6,33.8,30.09,SE,135,10.7,17.2,21,0.00,,CLR,0.00,VWS V14.01,2013-05-03 22:19:00,
2013-05-03 18:24:00,75.9,32.0,30.09,SE,135,11.0,19.2,20,0.00,,CLR,0.00,VWS V14.01,2013-05-03 22:24:00,
2013-05-03 18:29:00,75.2,31.4,30.09,SE,135,10.1,19.2,20,0.00,,CLR,0.00,VWS V14.01,2013-05-03 22:29:00,
2013-05-03 18:34:00,76.1,29.6,30.09,SE,135,12.3,19.2,18,0.00,,CLR,0.00,VWS V14.01,2013-05-03 22:34:00,
2013-05-03 18:39:00,76.5,32.5,30.09,East,90,6.7,19.2,20,0.00,,CLR,0.00,VWS V14.01,2013-05-03 22:39:00,
2013-05-03 18:44:00,76.3,29.7,30.09,SE,135,14.8,19.2,18,0.00,,CLR,0.00,VWS V14.01,2013-05-03 22:44:00,
2013-05-03 18:49:00,75.7,29.3,30.12,SE,135,8.7,19.2,18,0.00,,CLR,0.00,VWS V14.01,2013-05-03 22:49:00,
2013-05-03 18:54:00,75.4,29.0,30.12,SE,135,9.6,19.2,18,0.00,,CLR,0.00,VWS V14.01,2013-05-03 22:54:00,
2013-05-03 18:59:00,74.8,28.5,30.12,SE,135,10.7,19.2,18,0.00,,CLR,0.00,VWS V14.01,2013-05-03 22:59:00,
2013-05-03 19:00:00,74.1,25.1,30.12,East,90,10.5,19.2,16,0.00,,CLR,0.00,VWS V14.01,2013-05-03 23:00:00,
2013-05-03 19:04:00,73.9,27.8,30.12,SE,135,10.5,11.0,18,0.00,,CLR,0.00,VWS V14.01,2013-05-03 23:04:00,
2013-05-03 19:09:00,73.6,27.5,30.12,SE,135,8.7,13.6,18,0.00,,CLR,0.00,VWS V14.01,2013-05-03 23:09:00,
2013-05-03 19:14:00,73.2,28.5,30.12,ESE,112,8.5,13.6,19,0.00,,CLR,0.00,VWS V14.01,2013-05-03 23:14:00,
2013-05-03 19:19:00,72.9,28.2,30.12,SE,135,9.2,15.2,19,0.00,,CLR,0.00,VWS V14.01,2013-05-03 23:19:00,
2013-05-03 19:24:00,72.3,27.8,30.12,ESE,112,10.1,15.2,19,0.00,,CLR,0.00,VWS V14.01,2013-05-03 23:24:00,
2013-05-03 19:29:00,72.0,27.5,30.12,SE,135,14.8,16.6,19,0.00,,CLR,0.00,VWS V14.01,2013-05-03 23:29:00,
2013-05-03 19:34:00,71.6,27.2,30.12,SSE,158,7.6,16.6,19,0.00,,CLR,0.00,VWS V14.01,2013-05-03 23:34:00,
2013-05-03 19:39:00,71.1,26.8,30.12,ESE,112,8.7,16.6,19,0.00,,CLR,0.00,VWS V14.01,2013-05-03 23:39:00,
2013-05-03 19:44:00,70.9,26.6,30.12,ESE,112,3.1,16.6,19,0.00,,CLR,0.00,VWS V14.01,2013-05-03 23:44:00,
2013-05-03 19:49:00,70.3,26.2,30.12,SE,135,8.7,16.6,19,0.00,,CLR,0.00,VWS V14.01,2013-05-03 23:49:00,
2013-05-03 19:54:00,70.2,26.0,30.12,SE,135,8.1,16.6,19,0.00,,CLR,0.00,VWS V14.01,2013-05-03 23:54:00,
2013-05-03 19:59:00,69.8,29.3,30.12,SE,135,3.6,16.6,22,0.00,,CLR,0.00,VWS V14.01,2013-05-03 23:59:00,
2013-05-03 20:00:00,69.6,29.1,30.12,SE,135,6.3,16.6,22,0.00,,CLR,0.00,VWS V14.01,2013-05-04 00:00:00,
2013-05-03 20:04:00,69.3,28.8,30.12,SE,135,4.7,6.3,22,0.00,,CLR,0.00,VWS V14.01,2013-05-04 00:04:00,
2013-05-03 20:10:00,68.5,28.2,30.12,ESE,112,3.4,6.3,22,0.00,,CLR,0.00,VWS V14.01,2013-05-04 00:10:00,
2013-05-03 20:15:00,68.4,28.1,30.12,SE,135,8.5,9.6,22,0.00,,CLR,0.00,VWS V14.01,2013-05-04 00:15:00,
2013-05-03 20:20:00,68.4,28.1,30.15,SE,135,7.4,9.6,22,0.00,,CLR,0.00,VWS V14.01,2013-05-04 00:20:00,
2013-05-03 20:25:00,68.0,27.8,30.15,SE,135,5.8,9.6,22,0.00,,CLR,0.00,VWS V14.01,2013-05-04 00:25:00,
2013-05-03 20:30:00,67.8,27.6,30.15,SE,135,6.0,9.6,22,0.00,,CLR,0.00,VWS V14.01,2013-05-04 00:30:00,
2013-05-03 20:35:00,67.1,28.1,30.15,SE,135,3.1,9.6,23,0.00,,CLR,0.00,VWS V14.01,2013-05-04 00:35:00,
2013-05-03 20:40:00,66.7,27.8,30.15,ESE,112,3.8,9.6,23,0.00,,CLR,0.00,VWS V14.01,2013-05-04 00:40:00,
2013-05-03 20:45:00,66.2,27.3,30.15,ESE,112,3.4,9.6,23,0.00,,CLR,0.00,VWS V14.01,2013-05-04 00:45:00,
2013-05-03 20:50:00,66.4,27.5,30.15,SE,135,5.4,9.6,23,0.00,,CLR,0.00,VWS V14.01,2013-05-04 00:50:00,
2013-05-03 20:55:00,66.2,27.3,30.15,SE,135,5.4,9.6,23,0.00,,CLR,0.00,VWS V14.01,2013-05-04 00:55:00,
2013-05-03 21:00:00,66.4,27.5,30.15,ESE,112,4.0,9.6,23,0.00,,CLR,0.00,VWS V14.01,2013-05-04 01:00:00,
2013-05-03 21:05:00,66.4,27.5,30.15,ESE,112,6.0,7.4,23,0.00,,CLR,0.00,VWS V14.01,2013-05-04 01:05:00,
2013-05-03 21:10:00,66.0,27.2,30.15,ESE,112,3.8,7.4,23,0.00,,CLR,0.00,VWS V14.01,2013-05-04 01:10:00,
2013-05-03 21:15:00,65.8,28.1,30.15,SE,135,5.6,8.5,24,0.00,,CLR,0.00,VWS V14.01,2013-05-04 01:15:00,
2013-05-03 21:20:00,65.5,27.8,30.15,SE,135,3.4,8.5,24,0.00,,CLR,0.00,VWS V14.01,2013-05-04 01:20:00,
2013-05-03 21:25:00,64.8,27.2,30.15,SE,135,2.2,8.5,24,0.00,,CLR,0.00,VWS V14.01,2013-05-04 01:25:00,
2013-05-03 21:30:00,64.0,27.5,30.15,ESE,112,4.9,8.5,25,0.00,,CLR,0.00,VWS V14.01,2013-05-04 01:30:00,
2013-05-03 21:35:00,63.3,27.9,30.15,ESE,112,4.7,8.5,26,0.00,,CLR,0.00,VWS V14.01,2013-05-04 01:35:00,
2013-05-03 21:40:00,63.3,27.9,30.15,SE,135,3.1,8.5,26,0.00,,CLR,0.00,VWS V14.01,2013-05-04 01:40:00,
2013-05-03 21:45:00,63.5,29.0,30.15,SE,135,3.8,8.5,27,0.00,,CLR,0.00,VWS V14.01,2013-05-04 01:45:00,
2013-05-03 21:50:00,63.7,29.1,30.15,SE,135,7.4,8.5,27,0.00,,CLR,0.00,VWS V14.01,2013-05-04 01:50:00,
2013-05-03 21:55:00,64.2,29.6,30.15,ESE,112,6.3,8.5,27,0.00,,CLR,0.00,VWS V14.01,2013-05-04 01:55:00,
2013-05-03 22:00:00,64.2,29.6,30.15,ESE,112,5.4,8.5,27,0.00,,CLR,0.00,VWS V14.01,2013-05-04 02:00:00,
2013-05-03 22:05:00,63.9,30.1,30.15,SE,135,5.6,5.8,28,0.00,,CLR,0.00,VWS V14.01,2013-05-04 02:05:00,
2013-05-03 22:10:00,63.3,30.5,30.15,ESE,112,3.4,5.8,29,0.00,,CLR,0.00,VWS V14.01,2013-05-04 02:10:00,
2013-05-03 22:15:00,62.6,30.8,30.15,ESE,112,3.6,6.3,30,0.00,,CLR,0.00,VWS V14.01,2013-05-04 02:15:00,
2013-05-03 22:20:00,62.2,31.2,30.15,SE,135,2.5,6.3,31,0.00,,CLR,0.00,VWS V14.01,2013-05-04 02:20:00,
2013-05-03 22:25:00,61.9,33.2,30.15,SE,135,3.1,6.3,34,0.00,,CLR,0.00,VWS V14.01,2013-05-04 02:25:00,
2013-05-03 22:30:00,62.1,33.4,30.15,East,90,3.6,6.5,34,0.00,,CLR,0.00,VWS V14.01,2013-05-04 02:30:00,
2013-05-03 22:35:00,62.4,33.7,30.15,ESE,112,4.9,6.5,34,0.00,,CLR,0.00,VWS V14.01,2013-05-04 02:35:00,
2013-05-03 22:40:00,62.4,33.7,30.15,SE,135,4.0,6.5,34,0.00,,CLR,0.00,VWS V14.01,2013-05-04 02:40:00,
2013-05-03 22:45:00,62.6,33.9,30.15,ESE,112,4.0,6.5,34,0.00,,CLR,0.00,VWS V14.01,2013-05-04 02:45:00,
2013-05-03 22:50:00,62.6,33.9,30.15,SE,135,4.9,6.5,34,0.00,,CLR,0.00,VWS V14.01,2013-05-04 02:50:00,
2013-05-03 22:55:00,62.4,34.4,30.15,ESE,112,5.8,6.5,35,0.00,,CLR,0.00,VWS V14.01,2013-05-04 02:55:00,
2013-05-03 23:00:00,62.6,34.6,30.15,ESE,112,4.0,6.5,35,0.00,,CLR,0.00,VWS V14.01,2013-05-04 03:00:00,
2013-05-03 23:05:00,63.0,34.9,30.15,SE,135,3.1,7.2,35,0.00,,CLR,0.00,VWS V14.01,2013-05-04 03:05:00,
2013-05-03 23:10:00,62.6,34.6,30.15,ESE,112,2.7,7.4,35,0.00,,CLR,0.00,VWS V14.01,2013-05-04 03:10:00,
2013-05-03 23:15:00,62.1,34.8,30.15,ESE,112,3.8,7.4,36,0.00,,CLR,0.00,VWS V14.01,2013-05-04 03:15:00,
2013-05-03 23:20:00,62.1,34.8,30.15,SE,135,3.8,7.6,36,0.00,,CLR,0.00,VWS V14.01,2013-05-04 03:20:00,
2013-05-03 23:25:00,62.1,34.8,30.15,SE,135,5.4,7.6,36,0.00,,CLR,0.00,VWS V14.01,2013-05-04 03:25:00,
2013-05-03 23:30:00,62.6,34.6,30.15,SE,135,6.5,8.7,35,0.00,,CLR,0.00,VWS V14.01,2013-05-04 03:30:00,
2013-05-03 23:35:00,62.6,35.3,30.15,ESE,112,6.3,8.7,36,0.00,,CLR,0.00,VWS V14.01,2013-05-04 03:35:00,
2013-05-03 23:40:00,62.6,34.6,30.15,SE,135,5.8,8.7,35,0.00,,CLR,0.00,VWS V14.01,2013-05-04 03:40:00,
2013-05-03 23:45:00,62.2,35.0,30.15,ESE,112,4.0,8.7,36,0.00,,CLR,0.00,VWS V14.01,2013-05-04 03:45:00,
2013-05-03 23:50:00,61.9,35.3,30.12,ESE,112,3.6,8.7,37,0.00,,CLR,0.00,VWS V14.01,2013-05-04 03:50:00,
2013-05-03 23:55:00,61.5,35.0,30.12,East,90,3.4,8.7,37,0.00,,CLR,0.00,VWS V14.01,2013-05-04 03:55:00,